Weather Roundup
Issued by NWS Chicago, IL

Home | Current Version | Previous Version | Text Only | Print | Product List | Glossary Off
Versions: 1 2 3 4 5 6 7 8 9 10 11 12 13 14 15 16 17 18 19 20 21 22 23 24 25 26 27 28 29 30 31 32 33 34 35 36 37 38 39 40 41 42 43 44 45 46 47 48 49 50

000
NZUS59 KLOT 160808
HRRLOT

CHICAGO AREA WEATHER ROUNDUP
NATIONAL WEATHER SERVICE CHICAGO/ROMEOVILLE IL
200 AM CST MON JAN 16 2017

NOTE: "FAIR" INDICATES FEW OR NO CLOUDS BELOW 12,000 FEET WITH NO
SIGNIFICANT WEATHER AND/OR OBSTRUCTIONS TO VISIBILITY.

* THESE STATIONS ARE NOT UNDER NWS QUALITY CONTROL. THEY ALSO MAY NOT
  REPORT WEATHER SUCH AS PRECIPITATION OR FOG.

ILZ005-006-012>014-019>023-160900-
NORTHEAST ILLINOIS

CITY           SKY/WX    TMP DP  RH WIND       PRES   REMARKS
OHARE          CLOUDY    32  27  81 SE3       30.27S
MIDWAY         CLOUDY    34  25  69 SE5       30.28S WCI  30
AURORA         CLOUDY    33  27  78 SE5       30.28R HAZE    WCI  29
LANSING*       CLOUDY    32  29  90 E3        30.28F
JOLIET*        CLOUDY    34  30  86 E5        30.28R WCI  30
WAUKEGAN       CLOUDY    24  21  88 CALM      30.28R FOG
DUPAGE AIRPORT CLOUDY    33  25  72 E3        30.26F
WHEELING       CLOUDY    30  24  78 CALM      30.30R
KANKAKEE*      CLOUDY    32  29  87 CALM      30.28F
MORRIS*        CLOUDY    33  29  88 E5        30.26S WCI  28
LEWIS AIRPORT* LGT RAIN  32  31  94 E5        30.27S WCI  27
NORTHERLY ISL    N/A     31  28  89 CALM        N/A
$$

WIZ051-052-058>065-066-070>072-160900-
SOUTHEAST WISCONSIN

CITY           SKY/WX    TMP DP  RH WIND       PRES   REMARKS
MILWAUKEE      CLOUDY    24  17  74 CALM      30.28S
KENOSHA*       CLOUDY    25  19  78 CALM      30.28S HAZE
RACINE*        CLOUDY    24  18  77 CALM      30.30S
WAUKESHA       PTCLDY    21  18  86 CALM      30.28S
WEST BEND      CLOUDY    16  14  93 CALM      30.27S
$$

INZ001>003-010>013-019-020-160900-
NORTHWEST INDIANA

CITY           SKY/WX    TMP DP  RH WIND       PRES   REMARKS
GARY*          CLOUDY    34  26  74 CALM      30.30S
MICHIGAN CITY* NOT AVBL
RENSSELAER*    NOT AVBL
VALPARAISO     CLOUDY    32  28  85 E6        30.29S WCI  26
$$

LMZ740>746-160900-
SOUTHERN LAKE MICHIGAN

STATION/POSITION TIME  SKY/WX   TEMP WIND        PRES    VSBY
                                AIR  DIR/SP/G
                 (UTC)          (F)  (DEG/KT/KT) (MB)    (MI)
HARRISON CRIB    0740            33  150/  5/  6   N/A
BURNHAM HARBOR   0800            31   90/  1/  3   N/A
CALUMET HARBOR   0748            33   90/  2/  2 1025.0F
BURNS HARBOR     0740            33  170/  5/  7 1026.1S
MICHIGAN CITY    0740            32  120/  3/  4   N/A
$$

ABBREVIATIONS USED IN REMARKS
   TC - TEMPERATURE IN CELSIUS
  WCI - WIND CHILL INDEX
   HX - HEAT INDEX
  VSB - VISIBILITY
$$




USA.gov is the U.S. government's official web portal to all federal, state and local government web resources and services.